Location: Geroldsau
(48.7259°N, 8.2466°E)
Time: 09:21:16
(UTC+00:00)

Cosmos 1092 Rocket - Pass Details

Date: 20 June 2021
Orbit: 955 x 994 km, 82.9° (Epoch: 26 July)

Event Time Altitude Azimuth Distance (km) Brightness Sun altitude
Exits shadow 01:11:06 18° 183° (S) 2,162 5.3 -14.3°
Maximum altitude 01:15:50 83° 97° (E) 969 4.0 -14.0°
Drops below altitude 10° 01:22:00 10° 10° (N) 2,701 7.6 -13.5°
Sets 01:24:31 0° 10° (N) 3,654 8.6 -13.3°
